| time (UTC) | temp F | wind direction | speed knots | gust knots | rain 1hr in | rain 24hr in | rain mn in | humidity % | barometer mb |
| 20260506080512 | 56 | 183 | 2.6 | 6.1 | 0.00 | 0.00 | 0.00 | 92 | 1007.3 |
| 20260506073511 | 56 | 183 | 2.6 | 7.8 | 0.00 | 0.00 | 0.00 | 91 | 1007.5 |
| 20260506073011 | 56 | 211 | 3.5 | 9.6 | 0.00 | 0.00 | 0.00 | 91 | 1007.5 |
| 20260506072511 | 56 | 181 | 4.3 | 9.6 | 0.00 | 0.00 | 0.00 | 90 | 1007.6 |
| 20260506072010 | 56 | 169 | 4.3 | 7.8 | 0.00 | 0.00 | 0.00 | 91 | 1007.6 |
| 20260506071509 | 56 | 111 | 3.5 | 8.7 | 0.00 | 0.00 | 0.00 | 91 | 1007.6 |
| 20260506071010 | 56 | 181 | 3.5 | 8.7 | 0.00 | 0.00 | 0.00 | 90 | 1007.5 |
| 20260506070509 | 56 | 176 | 3.5 | 8.7 | 0.00 | 0.00 | 0.00 | 90 | 1007.6 |
| 20260506062011 | 57 | 185 | 4.3 | 7.8 | 0.00 | 0.00 | 0.00 | 89 | 1007.5 |
| 20260506061511 | 57 | 179 | 4.3 | 10.4 | 0.00 | 0.00 | 0.00 | 89 | 1007.5 |
| 20260506061008 | 57 | 181 | 5.2 | 11.3 | 0.00 | 0.00 | 0.00 | 88 | 1007.4 |
| 20260506060507 | 57 | 187 | 5.2 | 11.3 | 0.00 | 0.00 | 0.00 | 88 | 1007.4 |
| 20260506060240 | 57 | 179 | 4.3 | 11.3 | 0.00 | 0.00 | 0.00 | 88 | 1007.5 |
| 20260506051006 | 58 | 179 | 4.3 | 7.8 | 0.00 | 0.00 | 0.00 | 85 | 1007.8 |
| 20260506050506 | 58 | 140 | 4.3 | 8.7 | 0.00 | 0.00 | 0.00 | 85 | 1007.8 |
| 20260506045006 | 58 | 211 | 4.3 | 7.8 | 0.00 | 0.00 | 0.00 | 85 | 1007.8 |
| 20260506044506 | 58 | 180 | 4.3 | 8.7 | 0.00 | 0.00 | 0.00 | 84 | 1007.9 |
| 20260506044006 | 58 | 186 | 4.3 | 8.7 | 0.00 | 0.00 | 0.00 | 84 | 1007.9 |
| 20260506043505 | 58 | 184 | 4.3 | 8.7 | 0.00 | 0.00 | 0.00 | 84 | 1007.9 |
| 20260506043449 | 58 | 171 | 3.5 | 9.6 | 0.00 | 0.00 | 0.00 | 84 | 1007.8 |
| 20260506042505 | 59 | 161 | 4.3 | 9.6 | 0.00 | 0.00 | 0.00 | 84 | 1007.8 |
| 20260506042004 | 59 | 190 | 4.3 | 9.6 | 0.00 | 0.00 | 0.00 | 83 | 1007.8 |
| 20260506041505 | 59 | 178 | 4.3 | 9.6 | 0.00 | 0.00 | 0.00 | 83 | 1007.9 |
| 20260506041005 | 59 | 167 | 4.3 | 7.8 | 0.00 | 0.00 | 0.00 | 83 | 1007.9 |
| 20260506040506 | 59 | 196 | 4.3 | 8.7 | 0.00 | 0.00 | 0.00 | 82 | 1008.0 |
| 20260506040005 | 59 | 186 | 4.3 | 10.4 | 0.00 | 0.00 | 0.00 | 82 | 1008.0 |
| 20260506035505 | 60 | 22 | 5.2 | 10.4 | 0.00 | 0.00 | 0.00 | 82 | 1008.0 |
| 20260506035006 | 60 | 177 | 5.2 | 10.4 | 0.00 | 0.00 | 0.00 | 81 | 1008.0 |
| 20260506034727 | 60 | 172 | 4.3 | 8.7 | 0.00 | 0.00 | 0.00 | 81 | 1007.9 |
| 20260506034005 | 60 | 220 | 4.3 | 9.6 | 0.00 | 0.00 | 0.00 | 81 | 1007.8 |
| 20260506033506 | 60 | 161 | 4.3 | 9.6 | 0.00 | 0.00 | 0.00 | 80 | 1007.8 |
| 20260506033003 | 61 | 153 | 4.3 | 9.6 | 0.00 | 0.00 | 0.00 | 80 | 1007.9 |
| 20260506032501 | 61 | 197 | 4.3 | 9.6 | 0.00 | 0.00 | 0.00 | 80 | 1007.8 |
| 20260506032003 | 61 | 167 | 3.5 | 8.7 | 0.00 | 0.00 | 0.00 | 79 | 1007.8 |
| 20260506031502 | 61 | 178 | 4.3 | 8.7 | 0.00 | 0.00 | 0.00 | 79 | 1007.9 |
| 20260506031220 | 61 | 165 | 4.3 | 9.6 | 0.00 | 0.00 | 0.00 | 79 | 1007.8 |
| 20260506030501 | 61 | 217 | 5.2 | 10.4 | 0.00 | 0.00 | 0.00 | 79 | 1007.8 |
| 20260506030003 | 61 | 174 | 4.3 | 10.4 | 0.00 | 0.00 | 0.00 | 79 | 1007.8 |
| 20260506025502 | 61 | 180 | 4.3 | 8.7 | 0.00 | 0.00 | 0.00 | 79 | 1007.9 |
| 20260506025003 | 61 | 171 | 3.5 | 8.7 | 0.00 | 0.00 | 0.00 | 79 | 1007.9 |
| 20260506024501 | 61 | 187 | 3.5 | 10.4 | 0.00 | 0.00 | 0.00 | 79 | 1007.9 |
| 20260506024003 | 61 | 195 | 4.3 | 10.4 | 0.00 | 0.00 | 0.00 | 78 | 1007.9 |
| 20260506023502 | 62 | 230 | 3.5 | 8.7 | 0.00 | 0.00 | 0.00 | 77 | 1007.8 |
| 20260506023004 | 62 | 285 | 3.5 | 7.8 | 0.00 | 0.00 | 0.00 | 77 | 1007.9 |
| 20260506022503 | 62 | 191 | 4.3 | 10.4 | 0.00 | 0.00 | 0.00 | 77 | 1007.9 |
| 20260506022002 | 61 | 272 | 4.3 | 10.4 | 0.00 | 0.00 | 0.00 | 76 | 1007.8 |
| 20260506021503 | 61 | 164 | 3.5 | 8.7 | 0.00 | 0.00 | 0.00 | 76 | 1007.8 |
| 20260506021000 | 61 | 156 | 3.5 | 7.8 | 0.00 | 0.00 | 0.00 | 76 | 1008.0 |
| 20260506020456 | 62 | 171 | 3.5 | 7.8 | 0.00 | 0.00 | 0.00 | 76 | 1007.9 |
| 20260506015956 | 62 | 169 | 3.5 | 7.8 | 0.00 | 0.00 | 0.00 | 75 | 1007.9 |
| 20260506015457 | 62 | 158 | 4.3 | 7.8 | 0.00 | 0.00 | 0.00 | 75 | 1007.8 |
| 20260506015221 | 62 | 172 | 4.3 | 8.7 | 0.00 | 0.00 | 0.00 | 75 | 1007.8 |
| 20260506014457 | 62 | 172 | 4.3 | 10.4 | 0.00 | 0.00 | 0.00 | 75 | 1007.7 |
| 20260506013956 | 62 | 163 | 3.5 | 10.4 | 0.00 | 0.00 | 0.00 | 75 | 1007.6 |
| 20260506013457 | 62 | 303 | 4.3 | 11.3 | 0.00 | 0.00 | 0.00 | 74 | 1007.6 |
| 20260506012957 | 62 | 170 | 5.2 | 11.3 | 0.00 | 0.00 | 0.00 | 74 | 1007.5 |
| 20260506012457 | 62 | 165 | 5.2 | 10.4 | 0.00 | 0.00 | 0.00 | 73 | 1007.5 |
| 20260506011957 | 63 | 178 | 5.2 | 11.3 | 0.00 | 0.00 | 0.00 | 73 | 1007.4 |
| 20260506011458 | 63 | 262 | 4.3 | 11.3 | 0.00 | 0.00 | 0.00 | 72 | 1007.4 |
| 20260506010957 | 63 | 171 | 4.3 | 7.8 | 0.00 | 0.00 | 0.00 | 72 | 1007.3 |
| 20260506010457 | 63 | 181 | 4.3 | 8.7 | 0.00 | 0.00 | 0.00 | 72 | 1007.3 |
| 20260506005958 | 63 | 153 | 4.3 | 8.7 | 0.00 | 0.00 | 0.00 | 72 | 1007.3 |
| 20260506005458 | 63 | 165 | 4.3 | 8.7 | 0.00 | 0.00 | 0.00 | 72 | 1007.1 |
| 20260506005222 | 63 | 165 | 3.5 | 8.7 | 0.00 | 0.00 | 0.00 | 71 | 1007.1 |
| 20260506004455 | 64 | 181 | 3.5 | 10.4 | 0.00 | 0.00 | 0.00 | 70 | 1007.0 |
| 20260506003954 | 64 | 181 | 3.5 | 10.4 | 0.00 | 0.00 | 0.00 | 69 | 1006.9 |
| 20260506003455 | 64 | 271 | 3.5 | 7.8 | 0.00 | 0.00 | 0.00 | 69 | 1006.9 |
| 20260506002958 | 64 | 174 | 3.5 | 7.8 | 0.00 | 0.00 | 0.00 | 68 | 1006.9 |
| 20260506002954 | 65 | 146 | 3.5 | 7.8 | 0.00 | 0.00 | 0.00 | 68 | 1006.9 |
| 20260506001955 | 65 | 169 | 3.5 | 7.8 | 0.00 | 0.00 | 0.00 | 68 | 1006.8 |
| 20260506001455 | 65 | 158 | 3.5 | 7.8 | 0.00 | 0.00 | 0.00 | 68 | 1006.8 |
| 20260506000955 | 65 | 174 | 3.5 | 10.4 | 0.00 | 0.00 | 0.00 | 68 | 1006.7 |
| 20260506000455 | 65 | 166 | 3.5 | 10.4 | 0.00 | 0.00 | 0.00 | 68 | 1006.6 |
| 20260505235955 | 65 | 189 | 3.5 | 7.0 | 0.00 | 0.00 | 0.00 | 67 | 1006.5 |
| 20260505235452 | 65 | 161 | 3.5 | 7.0 | 0.00 | 0.00 | 0.00 | 67 | 1006.6 |
| 20260505234952 | 65 | 175 | 2.6 | 7.8 | 0.00 | 0.00 | 0.00 | 67 | 1006.6 |
| 20260505234710 | 65 | 196 | 3.5 | 7.8 | 0.00 | 0.00 | 0.00 | 67 | 1006.4 |
| 20260505233950 | 65 | 181 | 4.3 | 8.7 | 0.00 | 0.00 | 0.00 | 67 | 1006.3 |
| 20260505233449 | 65 | 174 | 4.3 | 8.7 | 0.00 | 0.00 | 0.00 | 66 | 1006.2 |
| 20260505232949 | 65 | 179 | 3.5 | 8.7 | 0.00 | 0.00 | 0.00 | 66 | 1006.2 |
| 20260505232450 | 65 | 172 | 3.5 | 8.7 | 0.00 | 0.00 | 0.00 | 66 | 1006.1 |
| 20260505231950 | 65 | 328 | 2.6 | 6.1 | 0.00 | 0.00 | 0.00 | 66 | 1006.0 |
| 20260505231446 | 65 | 164 | 3.5 | 7.0 | 0.00 | 0.00 | 0.00 | 66 | 1006.0 |
| 20260505230947 | 65 | 169 | 4.3 | 9.6 | 0.00 | 0.00 | 0.00 | 66 | 1005.9 |
| 20260505230447 | 65 | 144 | 4.3 | 9.6 | 0.00 | 0.00 | 0.00 | 66 | 1005.8 |
| 20260505225947 | 65 | 173 | 3.5 | 9.6 | 0.00 | 0.00 | 0.00 | 65 | 1005.8 |
| 20260505225447 | 66 | 171 | 3.5 | 7.0 | 0.00 | 0.00 | 0.00 | 65 | 1005.7 |
| 20260505224947 | 66 | 188 | 3.5 | 7.8 | 0.00 | 0.00 | 0.00 | 64 | 1005.8 |
| 20260505224447 | 66 | 170 | 3.5 | 13.0 | 0.00 | 0.00 | 0.00 | 63 | 1005.9 |
| 20260505224211 | 67 | 194 | 5.2 | 15.6 | 0.00 | 0.00 | 0.00 | 63 | 1005.9 |
| 20260505223448 | 67 | 182 | 5.2 | 15.6 | 0.00 | 0.00 | 0.00 | 62 | 1005.7 |
| 20260505222946 | 67 | 176 | 5.2 | 11.3 | 0.00 | 0.00 | 0.00 | 61 | 1005.7 |
| 20260505222442 | 68 | 182 | 5.2 | 11.3 | 0.00 | 0.00 | 0.00 | 61 | 1005.6 |
| 20260505221442 | 68 | 177 | 5.2 | 11.3 | 0.00 | 0.00 | 0.00 | 60 | 1005.5 |
| 20260505220941 | 68 | 199 | 5.2 | 11.3 | 0.00 | 0.00 | 0.00 | 60 | 1005.5 |
| 20260505220442 | 69 | 183 | 5.2 | 11.3 | 0.00 | 0.00 | 0.00 | 60 | 1005.6 |
| 20260505215943 | 69 | 297 | 5.2 | 10.4 | 0.00 | 0.00 | 0.00 | 60 | 1005.5 |
| 20260505215442 | 69 | 101 | 5.2 | 10.4 | 0.00 | 0.00 | 0.00 | 59 | 1005.6 |
| 20260505214942 | 69 | 271 | 5.2 | 11.3 | 0.00 | 0.00 | 0.00 | 59 | 1005.7 |
| 20260505214442 | 69 | 184 | 5.2 | 11.3 | 0.00 | 0.00 | 0.00 | 60 | 1005.6 |
| 20260505213943 | 69 | 166 | 4.3 | 10.4 | 0.00 | 0.00 | 0.00 | 60 | 1005.6 |
| 20260505213442 | 69 | 180 | 4.3 | 8.7 | 0.00 | 0.00 | 0.00 | 60 | 1005.5 |
| 20260505212942 | 69 | 331 | 4.3 | 10.4 | 0.00 | 0.00 | 0.00 | 60 | 1005.5 |
| 20260505212708 | 68 | 181 | 5.2 | 11.3 | 0.00 | 0.00 | 0.00 | 61 | 1005.4 |
| 20260505211941 | 68 | 118 | 5.2 | 11.3 | 0.00 | 0.00 | 0.00 | 61 | 1005.3 |
| 20260505211439 | 68 | 175 | 5.2 | 9.6 | 0.00 | 0.00 | 0.00 | 62 | 1005.3 |
| 20260505210940 | 68 | 170 | 5.2 | 10.4 | 0.00 | 0.00 | 0.00 | 62 | 1005.3 |
| 20260505210440 | 68 | 184 | 4.3 | 10.4 | 0.00 | 0.00 | 0.00 | 63 | 1005.3 |
| 20260505205939 | 68 | 171 | 4.3 | 8.7 | 0.00 | 0.00 | 0.00 | 63 | 1005.2 |
| 20260505205440 | 68 | 178 | 4.3 | 9.6 | 0.00 | 0.00 | 0.00 | 63 | 1005.4 |
| 20260505205203 | 68 | 191 | 4.3 | 9.6 | 0.00 | 0.00 | 0.00 | 63 | 1005.4 |
| 20260505204439 | 68 | 260 | 4.3 | 8.7 | 0.00 | 0.00 | 0.00 | 62 | 1005.5 |
| 20260505203940 | 68 | 277 | 3.5 | 8.7 | 0.00 | 0.00 | 0.00 | 62 | 1005.4 |
| 20260505203440 | 68 | 172 | 4.3 | 8.7 | 0.00 | 0.00 | 0.00 | 63 | 1005.4 |
| 20260505202940 | 68 | 181 | 5.2 | 10.4 | 0.00 | 0.00 | 0.00 | 63 | 1005.4 |
| 20260505202658 | 68 | 172 | 5.2 | 10.4 | 0.00 | 0.00 | 0.00 | 63 | 1005.6 |
| 20260505201940 | 69 | 182 | 5.2 | 10.4 | 0.00 | 0.00 | 0.00 | 62 | 1005.6 |
| 20260505201440 | 69 | 189 | 4.3 | 8.7 | 0.00 | 0.00 | 0.00 | 61 | 1005.6 |
| 20260505200940 | 70 | 188 | 4.3 | 8.7 | 0.00 | 0.00 | 0.00 | 60 | 1005.7 |
| 20260505200438 | 70 | 163 | 3.5 | 8.7 | 0.00 | 0.00 | 0.00 | 61 | 1005.6 |
| 20260505195938 | 70 | 325 | 3.5 | 8.7 | 0.00 | 0.00 | 0.00 | 62 | 1005.7 |
| 20260505195437 | 71 | 186 | 3.5 | 9.6 | 0.00 | 0.00 | 0.00 | 61 | 1005.7 |
| 20260505194938 | 71 | 199 | 3.5 | 9.6 | 0.00 | 0.00 | 0.00 | 60 | 1005.8 |
| 20260505194438 | 71 | 337 | 2.6 | 7.8 | 0.00 | 0.00 | 0.00 | 61 | 1006.0 |
| 20260505193937 | 70 | 176 | 3.5 | 7.8 | 0.00 | 0.00 | 0.00 | 59 | 1005.9 |
| 20260505193438 | 70 | 155 | 3.5 | 7.8 | 0.00 | 0.00 | 0.00 | 61 | 1005.9 |
| 20260505192939 | 70 | 131 | 3.5 | 7.8 | 0.00 | 0.00 | 0.00 | 63 | 1006.1 |
| 20260505192439 | 69 | 177 | 3.5 | 7.8 | 0.00 | 0.00 | 0.00 | 62 | 1006.2 |
| 20260505191938 | 69 | 164 | 3.5 | 7.8 | 0.00 | 0.00 | 0.00 | 63 | 1006.3 |
| 20260505191438 | 69 | 185 | 3.5 | 7.0 | 0.00 | 0.00 | 0.00 | 62 | 1006.5 |
| 20260505190939 | 69 | 175 | 3.5 | 7.0 | 0.00 | 0.00 | 0.00 | 63 | 1006.4 |
| 20260505190439 | 69 | 170 | 4.3 | 9.6 | 0.00 | 0.00 | 0.00 | 63 | 1006.5 |
| 20260505190158 | 69 | 161 | 4.3 | 13.0 | 0.00 | 0.00 | 0.00 | 62 | 1006.6 |
| 20260505185436 | 69 | 210 | 5.2 | 13.0 | 0.00 | 0.00 | 0.00 | 63 | 1006.7 |
| 20260505185153 | 69 | 221 | 4.3 | 9.6 | 0.00 | 0.00 | 0.00 | 63 | 1006.7 |
| 20260505184433 | 70 | 192 | 3.5 | 9.6 | 0.00 | 0.00 | 0.00 | 63 | 1006.9 |
| 20260505184418 | 70 | 252 | 3.5 | 8.7 | 0.00 | 0.00 | 0.00 | 61 | 1007.0 |
| 20260505183433 | 70 | 166 | 3.5 | 8.7 | 0.00 | 0.00 | 0.00 | 62 | 1007.0 |
| 20260505182933 | 70 | 203 | 3.5 | 7.8 | 0.00 | 0.00 | 0.00 | 64 | 1007.1 |
| 20260505182433 | 70 | 90 | 3.5 | 7.0 | 0.00 | 0.00 | 0.00 | 64 | 1007.0 |
| 20260505181933 | 70 | 284 | 3.5 | 7.0 | 0.00 | 0.00 | 0.00 | 63 | 1007.1 |
| 20260505181433 | 70 | 94 | 2.6 | 6.1 | 0.00 | 0.00 | 0.00 | 63 | 1007.0 |
| 20260505180933 | 70 | 123 | 2.6 | 6.1 | 0.00 | 0.00 | 0.00 | 64 | 1007.1 |
| 20260505180433 | 70 | 303 | 3.5 | 7.0 | 0.00 | 0.00 | 0.00 | 63 | 1007.1 |
| 20260505180200 | 69 | 173 | 2.6 | 7.0 | 0.00 | 0.00 | 0.00 | 64 | 1007.1 |
| 20260505175433 | 69 | 59 | 2.6 | 6.1 | 0.00 | 0.00 | 0.00 | 64 | 1007.2 |
| 20260505174930 | 69 | 333 | 2.6 | 5.2 | 0.00 | 0.00 | 0.00 | 64 | 1007.3 |
| 20260505174430 | 69 | 172 | 3.5 | 7.0 | 0.00 | 0.00 | 0.00 | 65 | 1007.3 |
| 20260505173930 | 69 | 182 | 2.6 | 7.0 | 0.00 | 0.00 | 0.00 | 65 | 1007.3 |
| 20260505173654 | 69 | 152 | 2.6 | 6.1 | 0.00 | 0.00 | 0.00 | 64 | 1007.3 |
| 20260505172928 | 69 | 185 | 3.5 | 7.0 | 0.00 | 0.00 | 0.00 | 64 | 1007.4 |
| 20260505172427 | 68 | 179 | 4.3 | 7.0 | 0.00 | 0.00 | 0.00 | 66 | 1007.4 |
| 20260505172150 | 69 | 176 | 3.5 | 7.0 | 0.00 | 0.00 | 0.00 | 65 | 1007.4 |
| 20260505171428 | 69 | 282 | 4.3 | 7.8 | 0.00 | 0.00 | 0.00 | 64 | 1007.4 |
| 20260505170928 | 70 | 182 | 3.5 | 7.8 | 0.00 | 0.00 | 0.00 | 63 | 1007.4 |
| 20260505170428 | 71 | 179 | 2.6 | 7.0 | 0.00 | 0.00 | 0.00 | 62 | 1007.5 |
| 20260505165928 | 71 | 98 | 2.6 | 7.0 | 0.00 | 0.00 | 0.00 | 61 | 1007.5 |
| 20260505165428 | 71 | 163 | 2.6 | 7.0 | 0.00 | 0.00 | 0.00 | 62 | 1007.5 |
| 20260505164928 | 71 | 150 | 3.5 | 7.8 | 0.00 | 0.00 | 0.00 | 60 | 1007.5 |
| 20260505164428 | 70 | 180 | 3.5 | 7.8 | 0.00 | 0.00 | 0.00 | 62 | 1007.5 |
| 20260505163928 | 71 | 181 | 2.6 | 6.1 | 0.00 | 0.00 | 0.00 | 61 | 1007.6 |
| 20260505163425 | 71 | 243 | 2.6 | 5.2 | 0.00 | 0.00 | 0.00 | 61 | 1007.7 |
| 20260505162926 | 71 | 322 | 2.6 | 7.0 | 0.00 | 0.00 | 0.00 | 61 | 1007.8 |
| 20260505162423 | 71 | 324 | 3.5 | 7.8 | 0.00 | 0.00 | 0.00 | 61 | 1007.9 |
| 20260505161922 | 71 | 178 | 3.5 | 7.8 | 0.00 | 0.00 | 0.00 | 61 | 1007.9 |
| 20260505161422 | 71 | 172 | 3.5 | 7.0 | 0.00 | 0.00 | 0.00 | 60 | 1007.9 |
| 20260505160923 | 71 | 140 | 3.5 | 7.0 | 0.00 | 0.00 | 0.00 | 62 | 1007.9 |
| 20260505160423 | 71 | 188 | 3.5 | 7.0 | 0.00 | 0.00 | 0.00 | 62 | 1007.9 |
| 20260505153146 | 70 | 307 | 2.6 | 5.2 | 0.00 | 0.00 | 0.00 | 62 | 1008.1 |
| 20260505152420 | 70 | 151 | 2.6 | 6.1 | 0.00 | 0.00 | 0.00 | 62 | 1008.2 |
| 20260505151918 | 69 | 134 | 2.6 | 7.0 | 0.00 | 0.00 | 0.00 | 62 | 1008.3 |
| 20260505151417 | 69 | 187 | 2.6 | 7.0 | 0.00 | 0.00 | 0.00 | 64 | 1008.4 |
| 20260505150914 | 70 | 324 | 2.6 | 5.2 | 0.00 | 0.00 | 0.00 | 63 | 1008.4 |
| 20260505150415 | 70 | 186 | 2.6 | 5.2 | 0.00 | 0.00 | 0.00 | 61 | 1008.5 |
| 20260505140413 | 69 | 278 | 3.5 | 7.8 | 0.00 | 0.00 | 0.00 | 61 | 1008.1 |
| 20260505124907 | 64 | 180 | 2.6 | 6.1 | 0.00 | 0.00 | 0.00 | 70 | 1007.9 |
| 20260505124404 | 64 | 164 | 2.6 | 6.1 | 0.00 | 0.00 | 0.00 | 70 | 1007.9 |
| 20260505124121 | 64 | 152 | 1.7 | 5.2 | 0.00 | 0.00 | 0.00 | 71 | 1007.7 |
| 20260505123405 | 64 | 189 | 1.7 | 4.3 | 0.00 | 0.00 | 0.00 | 72 | 1007.7 |
| 20260505123126 | 63 | 294 | 1.7 | 4.3 | 0.00 | 0.00 | 0.00 | 73 | 1007.7 |
| 20260505122402 | 63 | 175 | 1.7 | 4.3 | 0.00 | 0.00 | 0.00 | 74 | 1007.6 |
| 20260505121902 | 62 | 179 | 1.7 | 5.2 | 0.00 | 0.00 | 0.00 | 75 | 1007.6 |
| 20260505121402 | 62 | 250 | 1.7 | 5.2 | 0.00 | 0.00 | 0.00 | 76 | 1007.7 |
| 20260505120902 | 61 | 154 | 1.7 | 5.2 | 0.00 | 0.00 | 0.00 | 77 | 1007.8 |
| 20260505120401 | 60 | 178 | 1.7 | 4.3 | 0.00 | 0.00 | 0.00 | 79 | 1007.8 |
| 20260505115902 | 59 | 188 | 1.7 | 4.3 | 0.00 | 0.00 | 0.00 | 82 | 1007.9 |
| 20260505115402 | 58 | 207 | 1.7 | 4.3 | 0.00 | 0.00 | 0.00 | 83 | 1008.0 |
| 20260505114902 | 58 | 201 | 1.7 | 3.5 | 0.00 | 0.00 | 0.00 | 85 | 1007.9 |
| 20260505114402 | 57 | 207 | 1.7 | 3.5 | 0.00 | 0.00 | 0.00 | 87 | 1007.8 |
| 20260505114128 | 57 | 123 | 1.7 | 3.5 | 0.00 | 0.00 | 0.00 | 88 | 1007.9 |
| 20260505113623 | 57 | 135 | 1.7 | 3.5 | 0.00 | 0.00 | 0.00 | 89 | 1008.0 |
| 20260505113343 | 56 | 175 | 1.7 | 2.6 | 0.00 | 0.00 | 0.00 | 90 | 1008.1 |
| 20260505112400 | 56 | 176 | 1.7 | 2.6 | 0.00 | 0.00 | 0.00 | 91 | 1007.9 |
| 20260505111859 | 55 | 168 | 1.7 | 2.6 | 0.00 | 0.00 | 0.00 | 92 | 1007.9 |
| 20260505111400 | 55 | 168 | 1.7 | 2.6 | 0.00 | 0.00 | 0.00 | 93 | 1007.9 |
| 20260505110900 | 55 | 166 | 1.7 | 2.6 | 0.00 | 0.00 | 0.00 | 93 | 1007.9 |
| 20260505110400 | 54 | 180 | 0.9 | 2.6 | 0.00 | 0.00 | 0.00 | 94 | 1007.9 |
| 20260505101854 | 53 | 175 | 1.7 | 2.6 | 0.00 | 0.00 | 0.00 | 95 | 1007.3 |
| 20260505101355 | 53 | 200 | 0.9 | 2.6 | 0.00 | 0.00 | 0.00 | 96 | 1007.1 |
| 20260505101114 | 53 | 155 | 1.7 | 2.6 | 0.00 | 0.00 | 0.00 | 96 | 1007.1 |
| 20260505100614 | 53 | 150 | 1.7 | 2.6 | 0.00 | 0.00 | 0.00 | 96 | 1006.9 |
| 20260505095855 | 53 | 171 | 1.7 | 2.6 | 0.00 | 0.00 | 0.00 | 96 | 1006.8 |
| 20260505095355 | 53 | 157 | 1.7 | 2.6 | 0.00 | 0.00 | 0.00 | 96 | 1006.7 |
| 20260505094855 | 52 | 162 | 1.7 | 2.6 | 0.00 | 0.00 | 0.00 | 96 | 1006.8 |
| 20260505094355 | 52 | 154 | 1.7 | 2.6 | 0.00 | 0.00 | 0.00 | 95 | 1006.8 |
| 20260505094112 | 52 | 179 | 1.7 | 2.6 | 0.00 | 0.00 | 0.00 | 95 | 1006.7 |
| 20260505093355 | 52 | 171 | 1.7 | 1.7 | 0.00 | 0.00 | 0.00 | 95 | 1006.8 |
| 20260505092856 | 53 | 170 | 1.7 | 1.7 | 0.00 | 0.00 | 0.00 | 95 | 1006.8 |
| 20260505092355 | 53 | 159 | 0.9 | 2.6 | 0.00 | 0.00 | 0.00 | 95 | 1006.8 |
| 20260505091856 | 53 | 165 | 1.7 | 2.6 | 0.00 | 0.00 | 0.00 | 95 | 1006.9 |
| 20260505091355 | 53 | 153 | 1.7 | 2.6 | 0.00 | 0.00 | 0.00 | 95 | 1006.9 |
| 20260505090857 | 53 | 170 | 1.7 | 2.6 | 0.00 | 0.00 | 0.00 | 95 | 1006.9 |
| 20260505090355 | 53 | 140 | 1.7 | 2.6 | 0.00 | 0.00 | 0.00 | 95 | 1007.0 |
| 20260505085854 | 53 | 161 | 1.7 | 1.7 | 0.00 | 0.00 | 0.00 | 95 | 1006.9 |
| 20260505085351 | 53 | 158 | 1.7 | 2.6 | 0.00 | 0.00 | 0.00 | 94 | 1006.9 |
| 20260505084851 | 53 | 148 | 1.7 | 2.6 | 0.00 | 0.00 | 0.00 | 94 | 1006.9 |
| 20260505084351 | 53 | 173 | 0.9 | 2.6 | 0.00 | 0.00 | 0.00 | 94 | 1006.9 |
| 20260505083849 | 53 | 0 | 1.7 | 2.6 | 0.00 | 0.00 | 0.00 | 94 | 1006.9 |
| 20260505083349 | 53 | 174 | 1.7 | 2.6 | 0.00 | 0.00 | 0.00 | 94 | 1006.9 |
| 20260505082850 | 53 | 147 | 1.7 | 2.6 | 0.00 | 0.00 | 0.00 | 94 | 1006.9 |
| 20260505082350 | 53 | 185 | 1.7 | 2.6 | 0.00 | 0.00 | 0.00 | 94 | 1006.9 |
| 20260505081850 | 53 | 152 | 1.7 | 3.5 | 0.00 | 0.00 | 0.00 | 94 | 1006.9 |
| 20260505081350 | 53 | 141 | 1.7 | 3.5 | 0.00 | 0.00 | 0.00 | 94 | 1006.9 |